Forestdale, MA

11:04 AM EST on February 07, 2016 (GMT -0500)
Cape Cod Coast Guard Air Station

Weather History for KFMH - November, 2012

Change the Weather History Date:

Friday, November 30, 2012

  Actual Average Record
Temperature  
Mean Temperature 36 °F -  
Max Temperature 43 °F 45 °F 64 °F (2001)
Min Temperature 30 °F 29 °F 17 °F (1996)
Degree Days  
Heating Degree Days 28    
Moisture  
Dew Point 24 °F    
Average Humidity 66    
Maximum Humidity 87    
Minimum Humidity 45    
Precipitation  
Precipitation 0.00 in - - ()
Sea Level Pressure  
Sea Level Pressure 30.42 in    
Wind  
Wind Speed 11 mph (NNE)    
Max Wind Speed 17 mph    
Max Gust Speed 23 mph    
Visibility 10 miles    
Events      
Averages and records for this station are not official NWS values.
T = Trace of Precipitation, MM = Missing Value Source: NWS Daily Summary

Daily Weather History Graph

Daily Weather History Graph

Search for Another Location

Airport or City:

Trip Planner

Search our weather history database for the weather conditions in past years. The results will help you decide how hot, cold, wet, or windy it might be!

Date:

Astronomy

Nov. 30, 2012 Rise Set
Actual Time 6:48 AM EST 4:12 PM EST
Civil Twilight 6:18 AM EST 4:43 PM EST
Nautical Twilight 5:43 AM EST 5:18 PM EST
Astronomical Twilight 5:10 AM EST 5:51 PM EST
Moon 6:04 PM EST (11/30) 8:18 AM EST (11/30)
Length of Visible Light 10h 25m
Length of Day
9h 23m
Waning Gibbous, 96% of the Moon is Illuminated
Nov 30
Waning Gibbous
Dec 6
Last Quarter
Dec 13
New
Dec 20
First Quarter
Dec 28
Full

Hourly Weather History & Observations

Time (EST) Temp. Windchill Dew Point Humidity Pressure Visibility Wind Dir Wind Speed Gust Speed Precip Events Conditions
12:15 AM 39.2 °F 30.5 °F 28.4 °F 65% 30.25 in 10.0 mi West 16.1 mph 23.0 mph N/A   Unknown
12:35 AM 39.2 °F 30.5 °F 26.6 °F 61% 30.25 in 10.0 mi West 16.1 mph 21.9 mph N/A   Unknown
12:55 AM 39.2 °F 30.8 °F 26.6 °F 61% 30.25 in 10.0 mi West 15.0 mph 20.7 mph N/A   Unknown
1:15 AM 39.2 °F 30.5 °F 26.6 °F 61% 30.25 in 10.0 mi West 16.1 mph - N/A   Unknown
1:35 AM 39.2 °F 32.0 °F 26.6 °F 61% 30.26 in 10.0 mi West 11.5 mph - N/A   Unknown
1:55 AM 37.4 °F 30.3 °F 26.6 °F 65% 30.26 in 10.0 mi West 10.4 mph - N/A   Unknown
2:15 AM 37.4 °F 30.3 °F 26.6 °F 65% 30.27 in 10.0 mi West 10.4 mph - N/A   Unknown
2:35 AM 37.4 °F 30.8 °F 26.6 °F 65% 30.27 in 10.0 mi West 9.2 mph - N/A   Unknown
2:55 AM 37.4 °F 30.3 °F 26.6 °F 65% 30.27 in 10.0 mi West 10.4 mph - N/A   Unknown
3:15 AM 37.4 °F 30.8 °F 24.8 °F 60% 30.27 in 10.0 mi West 9.2 mph - N/A   Unknown
3:35 AM 35.6 °F 31.7 °F 24.8 °F 65% 30.28 in 10.0 mi NW 4.6 mph - N/A   Unknown
3:55 AM 35.6 °F 29.9 °F 24.8 °F 65% 30.28 in 10.0 mi WNW 6.9 mph - N/A   Unknown
4:15 AM 33.8 °F 29.6 °F 24.8 °F 70% 30.29 in 10.0 mi NW 4.6 mph - N/A   Unknown
4:35 AM 33.8 °F 27.7 °F 24.8 °F 70% 30.31 in 10.0 mi NNW 6.9 mph - N/A   Unknown
4:55 AM 35.6 °F 29.9 °F 24.8 °F 65% 30.32 in 10.0 mi North 6.9 mph - N/A   Unknown
5:15 AM 33.8 °F 29.6 °F 24.8 °F 70% 30.33 in 10.0 mi North 4.6 mph - N/A   Unknown
5:35 AM 32.0 °F 26.4 °F 24.8 °F 75% 30.33 in 10.0 mi NNW 5.8 mph - N/A   Unknown
5:55 AM 32.0 °F 27.5 °F 24.8 °F 75% 30.34 in 10.0 mi NNW 4.6 mph - N/A   Unknown
6:15 AM 32.0 °F 25.6 °F 24.8 °F 75% 30.35 in 10.0 mi North 6.9 mph - N/A   Unknown
6:35 AM 32.0 °F 25.6 °F 26.6 °F 80% 30.36 in 10.0 mi North 6.9 mph - N/A   Unknown
6:55 AM 32.0 °F 25.6 °F 28.4 °F 87% 30.37 in 10.0 mi North 6.9 mph - N/A   Unknown
7:15 AM 33.8 °F - 28.4 °F 81% 30.38 in 10.0 mi Calm Calm - N/A   Unknown
7:35 AM 33.8 °F 27.7 °F 28.4 °F 81% 30.38 in 10.0 mi NNE 6.9 mph - N/A   Unknown
7:55 AM 35.6 °F 27.1 °F 28.4 °F 75% 30.40 in 10.0 mi NNE 12.7 mph 21.9 mph N/A   Unknown
8:15 AM 35.6 °F 26.6 °F 28.4 °F 75% 30.40 in 10.0 mi NNE 13.8 mph 17.3 mph N/A   Unknown
8:35 AM 35.6 °F 28.0 °F 26.6 °F 70% 30.41 in 10.0 mi NNE 10.4 mph 19.6 mph N/A   Unknown
8:55 AM 37.4 °F 29.3 °F 23.0 °F 56% 30.42 in 10.0 mi NNE 12.7 mph 20.7 mph N/A   Unknown
9:15 AM 37.4 °F 29.8 °F 23.0 °F 56% 30.43 in 10.0 mi NNE 11.5 mph 18.4 mph N/A   Unknown
9:35 AM 37.4 °F 28.2 °F 23.0 °F 56% 30.43 in 10.0 mi NNE 16.1 mph 20.7 mph N/A   Unknown
9:55 AM 37.4 °F 29.3 °F 23.0 °F 56% 30.43 in 10.0 mi NNE 12.7 mph 21.9 mph N/A   Unknown
10:15 AM 37.4 °F 28.9 °F 24.8 °F 60% 30.43 in 10.0 mi NNE 13.8 mph 23.0 mph N/A   Unknown
10:35 AM 39.2 °F 32.0 °F 28.4 °F 65% 30.43 in 10.0 mi NNE 11.5 mph 20.7 mph N/A   Unknown
10:55 AM 37.4 °F 28.9 °F 26.6 °F 65% 30.43 in 10.0 mi NNE 13.8 mph 21.9 mph N/A   Unknown
11:15 AM 37.4 °F 29.8 °F 26.6 °F 65% 30.43 in 10.0 mi NNE 11.5 mph 20.7 mph N/A   Unknown
11:35 AM 37.4 °F 28.5 °F 26.6 °F 65% 30.43 in 10.0 mi NE 15.0 mph 19.6 mph N/A   Unknown
11:55 AM 35.6 °F 25.5 °F 26.6 °F 70% 30.43 in 10.0 mi NE 17.3 mph 21.9 mph N/A   Unknown
12:15 PM 35.6 °F 28.0 °F 24.8 °F 65% 30.43 in 10.0 mi NE 10.4 mph 18.4 mph N/A   Unknown
12:35 PM 35.6 °F 26.2 °F 24.8 °F 65% 30.43 in 10.0 mi NE 15.0 mph 20.7 mph N/A   Unknown
12:55 PM 35.6 °F 27.1 °F 24.8 °F 65% 30.44 in 10.0 mi NNE 12.7 mph - N/A   Unknown
1:15 PM 35.6 °F 28.0 °F 24.8 °F 65% 30.44 in 10.0 mi NE 10.4 mph - N/A   Unknown
1:35 PM 35.6 °F 26.2 °F 24.8 °F 65% 30.44 in 10.0 mi NE 15.0 mph 20.7 mph N/A   Unknown
1:55 PM 35.6 °F 26.6 °F 23.0 °F 60% 30.44 in 10.0 mi NE 13.8 mph 17.3 mph N/A   Unknown
2:15 PM 35.6 °F 26.6 °F 23.0 °F 60% 30.44 in 10.0 mi NE 13.8 mph 19.6 mph N/A   Unknown
2:35 PM 35.6 °F 26.6 °F 23.0 °F 60% 30.45 in 10.0 mi NE 13.8 mph 19.6 mph N/A   Unknown
2:55 PM 32.0 °F 23.6 °F 23.0 °F 69% 30.45 in 10.0 mi NNE 10.4 mph - N/A   Unknown
3:15 PM 32.0 °F 24.2 °F 23.0 °F 69% 30.46 in 10.0 mi NE 9.2 mph 19.6 mph N/A   Unknown
3:35 PM 32.0 °F 23.0 °F 23.0 °F 69% 30.46 in 10.0 mi ENE 11.5 mph - N/A   Unknown
3:55 PM 32.0 °F 24.2 °F 23.0 °F 69% 30.48 in 10.0 mi NE 9.2 mph - N/A   Unknown
4:15 PM 32.0 °F 26.4 °F 23.0 °F 69% 30.48 in 10.0 mi NE 5.8 mph - N/A   Unknown
4:35 PM 32.0 °F 25.6 °F 23.0 °F 69% 30.48 in 10.0 mi NE 6.9 mph - N/A   Unknown
4:55 PM 32.0 °F 24.2 °F 23.0 °F 69% 30.49 in 10.0 mi NE 9.2 mph - N/A   Unknown
5:15 PM 32.0 °F 24.2 °F 23.0 °F 69% 30.49 in 10.0 mi NE 9.2 mph - N/A   Unknown
5:35 PM 32.0 °F 24.2 °F 21.2 °F 64% 30.50 in 10.0 mi NE 9.2 mph - N/A   Unknown
5:55 PM 32.0 °F 24.2 °F 21.2 °F 64% 30.50 in 10.0 mi ENE 9.2 mph - N/A   Unknown
6:15 PM 30.2 °F 23.4 °F 21.2 °F 69% 30.50 in 10.0 mi ENE 6.9 mph - N/A   Unknown
6:35 PM 32.0 °F 24.8 °F 23.0 °F 69% 30.50 in 10.0 mi ENE 8.1 mph - N/A   Unknown
6:55 PM 32.0 °F 25.6 °F 23.0 °F 69% 30.51 in 10.0 mi NE 6.9 mph - N/A   Unknown
7:15 PM 32.0 °F 25.6 °F 23.0 °F 69% 30.52 in 10.0 mi ENE 6.9 mph - N/A   Unknown
7:35 PM 32.0 °F 24.8 °F 23.0 °F 69% 30.52 in 10.0 mi ENE 8.1 mph - N/A   Unknown
7:55 PM 32.0 °F 24.8 °F 23.0 °F 69% 30.52 in 10.0 mi ENE 8.1 mph - N/A   Unknown
8:15 PM 32.0 °F 26.4 °F 23.0 °F 69% 30.53 in 10.0 mi East 5.8 mph - N/A   Unknown
8:35 PM 32.0 °F 26.4 °F 21.2 °F 64% 30.53 in 10.0 mi East 5.8 mph - N/A   Unknown
8:55 PM 32.0 °F 25.6 °F 21.2 °F 64% 30.53 in 10.0 mi East 6.9 mph - N/A   Unknown
9:15 PM 32.0 °F 26.4 °F 21.2 °F 64% 30.54 in 10.0 mi East 5.8 mph - N/A   Unknown
9:35 PM 32.0 °F 25.6 °F 21.2 °F 64% 30.53 in 10.0 mi ENE 6.9 mph - N/A   Unknown
9:55 PM 32.0 °F 26.4 °F 21.2 °F 64% 30.53 in 10.0 mi East 5.8 mph - N/A   Unknown
10:15 PM 32.0 °F 26.4 °F 19.4 °F 60% 30.53 in 10.0 mi ENE 5.8 mph - N/A   Unknown
10:35 PM 32.0 °F 26.4 °F 21.2 °F 64% 30.53 in 10.0 mi East 5.8 mph - N/A   Unknown
10:55 PM 32.0 °F 27.5 °F 21.2 °F 64% 30.53 in 10.0 mi ENE 4.6 mph - N/A   Unknown
11:15 PM 32.0 °F 26.4 °F 21.2 °F 64% 30.53 in 10.0 mi East 5.8 mph - N/A   Unknown
11:35 PM 32.0 °F 26.4 °F 21.2 °F 64% 30.53 in 10.0 mi ENE 5.8 mph - N/A   Unknown
11:55 PM 32.0 °F 24.8 °F 21.2 °F 64% 30.53 in 10.0 mi ENE 8.1 mph - N/A   Unknown